Ketchikan, AK

7:49 AM AKDT on May 27, 2018 (GMT -0800)
Ketchikan International

Weather History for PAKT - February, 2018

Change the Weather History Date:

Thursday, February 22, 2018

  Actual Average Record
Temperature  
Mean Temperature 33 °F -  
Max Temperature 39 °F 43 °F 58 °F (1958)
Min Temperature 27 °F 33 °F 11 °F (1956)
Degree Days  
Heating Degree Days 32    
Moisture  
Dew Point 32 °F    
Average Humidity 90    
Maximum Humidity 100    
Minimum Humidity 81    
Precipitation  
Precipitation 0.33 in - - ()
Sea Level Pressure  
Sea Level Pressure 30.25 in    
Wind  
Wind Speed 7 mph (SSE)    
Max Wind Speed 17 mph    
Max Gust Speed 29 mph    
Visibility 6 miles    
Events Rain , Snow    
Averages and records for this station are not official NWS values.
T = Trace of Precipitation, MM = Missing Value Source: NWS Daily Summary

Daily Weather History Graph

Daily Weather History Graph

Search for Another Location

Airport or City:

Astronomy

Feb. 22, 2018 Rise Set
Actual Time 6:53 AM AKST 5:07 PM AKST
Civil Twilight 6:16 AM AKST 5:45 PM AKST
Nautical Twilight 5:34 AM AKST 6:27 PM AKST
Astronomical Twilight 4:51 AM AKST 7:10 PM AKST
Moon 9:53 AM AKST (2/22) 12:17 AM AKST (2/22)
Length of Visible Light 11h 28m
Length of Day
10h 14m
Waxing Crescent, 45% of the Moon is Illuminated
Feb 22
Waxing Crescent
Feb 22
First Quarter
Mar 1
Full
Mar 9
Last Quarter
Mar 17
New

Hourly Weather History & Observations

Time (AKST) Temp. Windchill Dew Point Humidity Pressure Visibility Wind Dir Wind Speed Gust Speed Precip Events Conditions
12:53 AM 27.0 °F 23.0 °F 23.0 °F 85% 30.42 in 10.0 mi SW 3.5 mph - N/A   Clear
1:53 AM 28.0 °F 22.8 °F 24.1 °F 85% 30.42 in 10.0 mi South 4.6 mph - N/A   Clear
2:53 AM 28.9 °F 25.2 °F 24.1 °F 82% 30.41 in 10.0 mi SSE 3.5 mph - N/A   Clear
3:53 AM 30.0 °F 25.2 °F 25.0 °F 82% 30.41 in 10.0 mi SE 4.6 mph - N/A   Partly Cloudy
4:53 AM 30.9 °F 26.2 °F 27.0 °F 85% 30.40 in 10.0 mi SE 4.6 mph - N/A   Overcast
5:53 AM 32.0 °F - 28.0 °F 85% 30.40 in 10.0 mi Calm Calm - N/A   Overcast
6:02 AM 32.0 °F 28.7 °F 28.0 °F 85% 30.40 in 10.0 mi SE 3.5 mph - N/A   Overcast
6:53 AM 33.8 °F 30.8 °F 28.4 °F 81% 30.40 in 10.0 mi SSE 3.5 mph - N/A   Mostly Cloudy
7:53 AM 33.8 °F 29.6 °F 30.2 °F 87% 30.40 in 10.0 mi SSE 4.6 mph - N/A   Mostly Cloudy
8:53 AM 33.8 °F 29.6 °F 30.2 °F 87% 30.40 in 10.0 mi SSE 4.6 mph - N/A   Mostly Cloudy
9:53 AM 35.6 °F 28.6 °F 30.2 °F 81% 30.40 in 7.0 mi SE 9.2 mph - N/A   Overcast
10:53 AM 35.6 °F 30.7 °F 30.2 °F 81% 30.39 in 10.0 mi SSE 5.8 mph - N/A   Overcast
11:53 AM 35.6 °F 30.7 °F 30.2 °F 81% 30.38 in 10.0 mi SSE 5.8 mph - N/A   Overcast
12:53 PM 35.6 °F 29.9 °F 32.0 °F 87% 30.36 in 3.0 mi SSE 6.9 mph - N/A   Overcast
1:48 PM 33.8 °F 27.0 °F 33.8 °F 100% 30.33 in 4.0 mi SE 8.1 mph - N/A   Overcast
1:53 PM 33.8 °F 26.4 °F 33.8 °F 100% 30.34 in 4.0 mi SE 9.2 mph - N/A   Overcast
2:53 PM 33.8 °F 27.0 °F 32.0 °F 93% 30.32 in 3.0 mi SSE 8.1 mph - N/A Snow Light Snow
3:53 PM 33.8 °F 27.7 °F 33.8 °F 100% 30.29 in 4.0 mi SSE 6.9 mph - N/A Snow Light Snow
4:53 PM 34.0 °F 28.0 °F 33.1 °F 96% 30.26 in 4.0 mi SSE 6.9 mph - 0.02 in   Overcast
5:53 PM 35.6 °F 29.9 °F 33.8 °F 93% 30.23 in 4.0 mi SSE 6.9 mph - N/A   Overcast
6:53 PM 35.6 °F 28.6 °F 33.8 °F 93% 30.19 in 3.0 mi SSE 9.2 mph - N/A   Overcast
7:53 PM 35.6 °F 28.0 °F 33.8 °F 93% 30.14 in 5.0 mi SSE 10.4 mph - N/A Rain Light Rain
8:53 PM 37.4 °F 29.8 °F 35.6 °F 93% 30.07 in 8.0 mi SSE 11.5 mph - N/A Rain Light Rain
9:24 PM 37.9 °F 28.5 °F 37.0 °F 97% 30.03 in 2.5 mi SE 17.3 mph - 0.03 in Rain Light Rain
9:35 PM 39.0 °F 30.3 °F 37.9 °F 96% 30.03 in 4.0 mi SE 16.1 mph - 0.04 in Rain Light Rain
9:53 PM 39.0 °F 29.9 °F 37.9 °F 96% 30.01 in 2.5 mi SE 17.3 mph - 0.08 in Rain Light Rain
10:00 PM 39.0 °F 30.3 °F 37.9 °F 96% 30.00 in 2.5 mi SE 16.1 mph 28.8 mph 0.02 in Rain Rain
10:11 PM 39.9 °F 31.1 °F 37.9 °F 93% 29.99 in 4.0 mi SE 17.3 mph 25.3 mph 0.04 in Rain Light Rain
10:53 PM 39.0 °F 31.0 °F 37.9 °F 96% 29.98 in 5.0 mi SE 13.8 mph - 0.10 in Rain Light Rain
10:57 PM 39.0 °F 31.0 °F 37.9 °F 96% 29.97 in 5.0 mi SE 13.8 mph - 0.01 in Rain Light Rain
11:53 PM 39.9 °F 32.9 °F 37.0 °F 89% 29.95 in 4.0 mi SE 11.5 mph - 0.13 in Rain Light Rain